Weather in Briakan

Russia / Khabarovsk Krai     52°18′40″N   135°49′36″E
temp.,
°C
wind,
m/s
gust,
m/s
humid.,
%
clouds,
%
prec.,
mm/h
press.,
hPa
HPBL,
m
9 december, thu
thu901:00−14wsw22925 0.0 102222
04:00−14wsw229374 0.0 102221
07:00−13wsw2194100 0.0 102115
10:00−13sw1194100 0.0 102022
13:00−5sse1284100 0.0 1016111
16:00−7sse1197100 0.0 101614
19:00−11wsw2194100 0.0 101615
22:00−10wsw2193100 0.0 101717
10 december, fri
fri1001:00−10wsw1193100 0.0 101715
04:00−10wsw1195100 0.0 101811
07:00−10nw1196100 0.0 101913
10:00−10nnw1295100 0.0 102278
13:00−7n1292100 0.1 1022207
16:00−7n1196100 0.3 102369
19:00−11w1198100 0.0 102510
22:00−12w2198100 0.1 102613
11 december, sat
sat1101:00−14w219990 0.0 102612
04:00−13w219882 0.1 102615
07:00−14w1197100 0.1 102617
10:00−12wnw1195100 0.2 102649
13:00−8n1190100 0.1 1024283
16:00−9ene1197100 0.1 102416
19:00−12nw1198100 0.2 102310
22:00−12nw1197100 0.4 102237
12 december, sun
sun1201:00−11nnw1396100 0.6 1020167
04:00−11nnw1496100 1.7 1018246
07:00−11nw1397100 0.8 1016148
10:00−11nw1295100 1.5 1015148
13:00−9nnw1492100 0.6 1012466
16:00−9n0196100 1.3 1011236
19:00−10wsw1197100 0.5 100913
22:00−11w1197100 0.9 100817
13 december, mon
mon1301:00−11w1197100 0.3 100635
04:00−10w2396100 0.7 100588
07:00−9wnw2796100 0.8 1005378
10:00−8nw31087100 1.8 1005821
13:00−6nnw41078100 0.6 1006942
16:00−7nw2582100 0.7 1006195
19:00−10wnw2490100 0.0 100988
22:00−9wnw2495100 0.2 1010119